Wind_Speed
13 13 12 13 13 14 15 15 16 17 18 20 21 22 24 26 27 28 29 30 30 30 31 32 33 34 35 36 37 39 39 40 41 42 43 44 44 44 45 45 45 45 45
17 17 17 17 17 18 19 21 21 22 23 24 25 27 29 31 33 34 36 37 37 38 38 39 40 41 42 43 44 45 46 47 48 49 49 49 49 49 49 49 48 48 48
20 21 23 23 24 25 26 27 28 29 30 30 31 32 33 35 38 41 42 44 44 45 46 47 48 49 50 51 52 53 54 55 55 55 55 55 55 54 54 53 52 52 51
24 26 28 29 30 32 32 33 35 36 37 37 38 38 39 40 42 45 47 48 49 50 52 53 54 56 57 58 59 60 60 61 61 60 60 60 59 59 58 57 56 55 54
29 30 32 34 35 37 38 39 39 40 42 42 43 44 45 46 47 48 49 50 51 52 52 53 55 56 58 59 61 62 63 63 63 63 63 62 61 61 60 59 58 57 56
33 34 36 38 39 40 41 42 43 44 44 45 46 46 47 48 49 49 50 51 52 53 55 56 57 58 59 60 62 63 64 64 64 63 62 62 61 61 60 59 59 58 57
37 39 40 41 42 43 43 44 44 45 46 46 46 47 47 48 48 49 50 52 53 55 57 59 61 62 63 65 65 66 65 64 63 62 61 61 61 60 59 59 58 57 57
41 43 44 44 44 44 44 43 44 45 45 46 47 47 47 49 51 52 53 55 57 59 62 63 64 65 66 66 66 65 64 63 62 62 61 61 60 59 59 58 57 56 55
43 44 44 44 44 45 44 43 43 44 46 47 48 49 49 51 52 55 58 60 61 63 64 65 65 66 65 65 64 64 64 64 64 63 62 60 58 58 57 57 56 55 54
44 45 46 45 46 46 45 45 45 46 48 50 51 52 53 54 55 57 60 62 63 63 64 65 65 65 66 66 66 67 68 68 67 65 63 60 58 57 57 56 56 55 53
45 46 46 47 47 47 48 48 49 50 51 53 55 57 59 60 60 60 60 61 62 63 63 64 65 66 67 68 69 70 70 69 68 65 62 60 59 58 57 56 55 54 53
45 46 47 48 49 49 50 51 52 53 55 57 59 61 62 62 63 62 61 61 62 64 65 67 68 69 70 71 72 71 70 68 67 64 62 60 58 58 57 56 55 53 53
47 48 49 49 50 50 51 53 55 57 59 60 62 62 63 63 63 64 64 65 65 65 67 68 71 72 73 73 73 72 70 69 67 65 63 61 59 58 58 57 55 54 53
49 50 50 51 51 52 54 57 58 60 61 62 63 63 63 64 65 67 67 67 66 66 67 68 71 73 74 74 73 73 72 71 69 68 66 64 62 60 59 58 57 56 54
52 53 54 54 55 57 59 60 62 63 64 63 63 64 66 66 67 67 68 68 68 67 67 69 71 73 74 74 73 73 72 71 70 68 66 64 63 61 60 60 59 58 57
55 56 57 58 59 61 62 63 64 65 64 64 64 65 66 67 68 68 68 69 70 71 70 70 73 74 74 73 70 68 65 63 62 60 59 58 58 59 59 59 60 60 60
57 58 60 62 63 63 64 65 64 63 63 64 65 65 66 66 65 65 67 68 71 73 73 72 73 71 68 63 58 55 52 50 48 47 47 47 49 51 53 55 57 59 61
60 62 64 65 64 63 64 66 64 63 63 62 62 63 61 61 62 64 67 69 71 73 73 69 63 58 53 50 47 43 40 38 37 37 38 39 40 42 45 48 51 54 58
64 65 65 64 63 63 63 62 62 61 60 59 58 57 58 60 62 65 67 69 69 68 64 59 52 48 44 42 38 35 32 32 31 32 33 34 35 36 38 41 44 48 52
65 64 62 61 61 61 62 62 60 58 56 55 55 57 59 61 63 65 65 64 61 57 53 48 42 38 36 34 31 29 28 29 29 30 30 30 30 31 32 34 36 40 44
61 60 60 60 60 60 59 57 55 54 53 54 56 58 59 61 62 62 59 54 50 45 41 37 32 29 27 26 25 24 24 24 24 25 25 25 26 26 28 29 31 34 38
59 59 58 58 57 55 53 52 52 52 53 54 55 57 58 58 56 52 47 44 40 35 31 27 23 21 19 19 19 19 18 18 19 21 20 19 19 19 22 25 27 30 33
56 55 54 54 51 50 49 50 51 52 53 54 54 54 52 49 45 40 37 33 30 26 22 18 15 14 14 14 14 14 15 15 15 16 15 15 15 14 15 17 20 24 26
52 51 50 49 48 48 48 49 50 51 51 51 49 46 42 38 35 30 26 23 20 17 14 11 10 10 11 11 12 12 12 12 12 13 12 12 12 11 11 12 14 16 19
49 47 47 46 47 47 47 47 47 47 46 44 40 37 33 30 26 21 17 14 12 11 9 9 9 9 10 10 11 12 12 12 12 13 12 12 12 11 11 11 12 13 15
44 44 45 45 45 45 44 42 41 40 38 35 32 30 27 23 18 14 11 10 9 8 8 8 9 9 11 12 13 14 14 14 14 13 13 12 11 11 11 11 12 12 14
Wind_Direction
320 315 308 302 299 296 291 287 282 279 278 277 276 276 276 278 280 282 283 282 280 278 277 276 276 276 275 276 276 277 277 277 277 277 277 277 276 276 275 275 274 274 273
315 311 308 305 300 293 287 284 280 278 276 276 277 278 279 281 283 285 285 286 285 283 280 278 277 276 276 276 276 277 277 277 277 277 276 276 276 275 275 274 274 273 273
313 311 308 306 302 299 295 291 289 287 285 284 284 284 284 285 286 286 287 287 287 285 283 282 280 278 277 277 277 278 278 278 278 277 277 276 276 276 275 274 273 273 272
311 309 308 306 305 303 300 297 295 294 292 291 289 287 287 286 286 286 287 287 287 286 284 283 282 281 279 279 279 279 279 280 279 279 277 277 276 276 275 275 274 273 272
306 306 306 305 303 302 300 297 294 293 292 292 291 291 291 291 289 289 289 289 289 288 288 287 286 284 283 281 281 280 280 280 279 279 278 277 277 276 275 274 274 273 271
302 302 303 302 301 300 298 295 292 291 290 290 291 292 293 292 291 290 290 290 289 289 288 288 287 286 285 284 283 283 283 283 281 280 279 277 276 275 275 274 273 272 270
296 298 299 300 298 297 297 294 291 289 289 289 291 291 292 292 291 291 290 290 289 288 287 287 287 286 286 286 285 285 285 284 283 281 279 277 276 275 274 273 271 269 267
292 294 296 297 296 295 296 294 292 290 290 290 291 291 290 291 291 290 289 288 288 287 287 287 287 288 288 287 286 285 284 283 281 280 278 277 275 274 273 271 269 267 265
288 291 294 296 295 295 295 293 292 291 292 292 292 291 290 290 289 289 288 287 287 287 287 287 287 287 287 287 286 285 284 283 282 280 279 277 274 272 270 267 265 263 261
289 293 296 297 296 295 294 293 293 292 292 293 293 292 291 290 289 287 288 289 289 289 288 288 288 287 287 286 285 285 284 283 282 281 279 276 272 268 266 264 262 260 258
292 295 296 296 295 294 294 294 293 293 293 293 293 293 292 291 290 289 288 289 290 290 289 289 288 287 286 286 285 285 284 283 282 281 278 274 271 267 264 262 260 257 255
292 294 294 295 295 294 294 294 294 294 294 294 293 292 292 292 291 291 290 289 290 290 289 289 288 287 286 286 285 284 283 282 281 279 276 273 269 266 263 261 259 256 253
291 292 294 295 295 295 294 294 293 293 293 292 292 292 292 291 291 291 292 291 290 289 288 288 287 287 287 286 285 284 282 280 279 276 274 271 267 264 261 259 257 254 251
292 292 293 295 295 295 295 294 293 292 291 291 291 291 291 291 292 292 292 291 290 288 287 287 287 287 287 286 284 283 281 279 277 274 272 269 266 263 259 257 254 252 249
291 292 293 294 294 296 296 295 293 292 292 292 292 292 291 292 293 293 292 291 290 288 287 287 287 287 286 285 283 281 280 278 276 274 271 268 265 261 258 254 252 249 247
290 292 293 295 296 298 297 296 295 294 293 294 294 295 294 293 293 292 291 291 291 291 290 289 288 287 286 285 284 283 281 278 276 274 271 267 264 260 256 253 249 247 245
291 293 295 297 298 298 298 296 295 297 297 296 295 295 295 294 293 292 292 293 293 293 293 292 291 290 289 288 286 284 281 278 275 272 269 265 262 259 255 251 248 245 242
293 295 296 297 297 296 297 297 297 299 299 298 297 296 295 294 294 295 295 295 295 295 295 295 294 293 291 289 287 286 283 278 275 272 269 267 264 260 256 251 247 244 241
292 294 296 296 296 296 298 300 301 301 300 299 298 296 296 297 297 297 297 296 296 297 297 298 296 293 290 288 286 285 283 279 276 274 271 269 266 262 258 254 248 244 240
293 295 296 298 298 299 300 302 302 301 300 298 298 298 299 299 298 298 298 298 299 299 299 299 297 294 290 287 286 285 284 281 279 276 272 270 267 263 258 253 247 242 239
294 296 297 298 300 302 302 301 300 299 299 300 300 300 300 299 299 299 301 301 301 301 301 300 298 295 291 289 289 289 286 283 282 279 277 273 269 263 258 253 248 243 240
296 297 298 300 301 301 300 299 300 300 301 301 301 300 300 300 301 303 304 304 304 305 305 303 301 298 296 296 296 295 292 288 285 285 287 283 277 266 258 252 247 244 241
297 299 300 301 301 300 301 301 302 303 302 302 301 300 301 303 305 307 307 308 309 311 312 312 309 306 307 308 307 305 303 301 295 292 293 288 284 274 263 255 248 245 242
298 299 300 300 301 302 303 303 303 302 302 301 302 303 305 308 310 312 314 316 318 321 325 328 327 325 325 324 321 319 317 313 308 304 301 294 287 279 268 258 250 244 240
299 300 301 302 303 303 304 303 303 302 303 304 306 308 311 314 316 319 323 328 334 339 345 350 349 346 344 339 334 329 324 319 312 306 301 295 288 280 270 260 252 246 240
302 303 303 304 304 304 304 304 304 304 306 308 310 313 316 320 323 329 336 347 356 5 10 10 6 0 352 344 337 333 329 322 314 305 298 292 285 277 268 261 253 247 240
Height
5868 5867 5866 5865 5864 5862 5861 5859 5858 5857 5855 5854 5852 5850 5848 5846 5844 5843 5841 5840 5840 5839 5837 5836 5834 5833 5832 5831 5830 5829 5828 5827 5826 5826 5825 5824 5824 5823 5823 5823 5823 5824 5824
5866 5864 5863 5862 5861 5860 5858 5856 5855 5853 5851 5849 5847 5845 5843 5840 5838 5836 5834 5833 5832 5831 5830 5828 5827 5825 5823 5822 5820 5819 5818 5816 5815 5815 5814 5813 5813 5812 5812 5812 5812 5813 5813
5862 5861 5859 5858 5857 5855 5853 5851 5849 5847 5845 5843 5841 5839 5837 5835 5832 5829 5827 5825 5823 5821 5820 5818 5817 5815 5813 5811 5809 5807 5806 5804 5803 5801 5800 5800 5799 5799 5799 5799 5799 5800 5801
5856 5855 5853 5851 5849 5848 5846 5844 5842 5839 5837 5835 5834 5831 5830 5827 5824 5821 5818 5816 5813 5811 5809 5807 5805 5802 5800 5798 5796 5794 5792 5790 5788 5786 5785 5784 5784 5784 5784 5784 5784 5785 5786
5850 5848 5847 5845 5843 5841 5839 5837 5834 5831 5829 5827 5825 5822 5820 5817 5814 5811 5808 5805 5801 5798 5796 5793 5791 5788 5785 5783 5781 5779 5777 5775 5773 5771 5769 5768 5768 5767 5767 5768 5768 5770 5771
5843 5841 5840 5838 5835 5833 5831 5828 5825 5823 5820 5818 5816 5813 5810 5806 5802 5800 5797 5793 5789 5786 5783 5780 5777 5774 5771 5768 5766 5763 5760 5758 5756 5755 5753 5752 5751 5750 5751 5751 5752 5753 5754
5836 5834 5831 5829 5826 5824 5821 5819 5816 5813 5810 5808 5806 5804 5800 5796 5792 5788 5785 5781 5777 5773 5770 5766 5762 5759 5756 5753 5750 5747 5744 5742 5740 5738 5737 5735 5734 5733 5733 5734 5735 5736 5737
5828 5825 5823 5820 5817 5814 5811 5809 5806 5803 5800 5797 5795 5793 5790 5787 5781 5777 5773 5768 5765 5760 5756 5752 5747 5743 5739 5736 5733 5730 5727 5725 5724 5722 5720 5718 5716 5715 5715 5716 5717 5718 5720
5819 5816 5813 5810 5808 5805 5802 5799 5796 5793 5789 5786 5783 5780 5777 5774 5771 5766 5760 5755 5751 5746 5741 5737 5732 5727 5723 5719 5716 5713 5710 5708 5706 5703 5701 5699 5698 5697 5697 5698 5699 5701 5703
5809 5806 5804 5801 5798 5795 5792 5788 5785 5782 5779 5774 5770 5767 5764 5760 5757 5753 5747 5740 5735 5730 5725 5720 5715 5710 5705 5701 5697 5694 5691 5688 5686 5684 5682 5681 5679 5678 5679 5680 5682 5684 5686
5801 5798 5794 5791 5788 5784 5781 5778 5774 5771 5767 5763 5758 5753 5749 5744 5740 5737 5734 5728 5720 5714 5709 5703 5698 5692 5687 5682 5678 5674 5671 5669 5666 5664 5662 5661 5660 5660 5661 5662 5665 5667 5670
5792 5789 5785 5781 5777 5774 5770 5766 5762 5758 5754 5749 5744 5739 5734 5729 5724 5719 5716 5712 5707 5701 5693 5686 5679 5673 5667 5663 5658 5654 5651 5648 5646 5644 5643 5642 5642 5642 5643 5645 5648 5651 5655
5783 5780 5775 5772 5768 5764 5759 5755 5751 5746 5741 5736 5730 5725 5719 5714 5708 5703 5699 5694 5690 5685 5677 5669 5660 5653 5647 5641 5636 5632 5630 5627 5625 5624 5623 5623 5623 5624 5625 5628 5631 5635 5639
5773 5769 5765 5761 5757 5753 5749 5744 5739 5733 5728 5722 5716 5710 5705 5698 5692 5686 5680 5675 5671 5667 5660 5652 5642 5632 5626 5620 5615 5610 5607 5604 5603 5602 5601 5602 5603 5604 5607 5609 5613 5618 5622
5762 5758 5754 5749 5745 5740 5735 5729 5724 5718 5712 5707 5701 5695 5689 5682 5676 5668 5661 5654 5650 5647 5644 5634 5624 5614 5605 5598 5592 5587 5584 5581 5579 5579 5579 5580 5581 5583 5586 5590 5594 5599 5605
5750 5745 5740 5736 5731 5725 5720 5714 5708 5702 5696 5690 5684 5678 5671 5665 5658 5651 5643 5636 5628 5622 5620 5614 5602 5593 5584 5576 5570 5565 5562 5559 5558 5557 5557 5558 5559 5561 5565 5569 5574 5579 5586
5737 5732 5727 5722 5716 5710 5704 5698 5692 5687 5681 5675 5668 5662 5655 5648 5641 5633 5625 5617 5608 5599 5594 5591 5579 5570 5562 5556 5551 5546 5543 5541 5540 5539 5539 5539 5540 5542 5545 5549 5554 5559 5566
5723 5718 5713 5708 5702 5695 5689 5683 5677 5672 5665 5659 5652 5645 5638 5631 5623 5615 5607 5598 5588 5578 5571 5566 5560 5551 5545 5539 5535 5532 5529 5528 5527 5527 5526 5526 5526 5527 5528 5531 5536 5541 5547
5711 5706 5700 5694 5687 5681 5675 5669 5662 5656 5650 5643 5636 5629 5622 5614 5607 5598 5589 5580 5570 5560 5552 5546 5543 5536 5531 5526 5523 5521 5519 5518 5517 5516 5515 5514 5514 5514 5515 5517 5520 5525 5531
5697 5691 5685 5679 5673 5666 5660 5654 5647 5641 5635 5628 5621 5614 5606 5598 5590 5582 5572 5563 5554 5546 5539 5533 5528 5523 5519 5515 5513 5512 5511 5509 5508 5506 5505 5504 5503 5503 5504 5506 5509 5512 5517
5682 5677 5671 5665 5659 5653 5646 5639 5633 5627 5621 5614 5606 5598 5591 5582 5574 5565 5557 5549 5541 5534 5528 5522 5518 5514 5511 5508 5506 5505 5504 5502 5500 5497 5497 5495 5495 5495 5495 5496 5498 5501 5506
5668 5663 5657 5651 5645 5639 5632 5626 5619 5613 5607 5600 5592 5584 5576 5568 5560 5552 5544 5537 5530 5524 5519 5515 5511 5508 5505 5503 5501 5499 5497 5496 5494 5492 5490 5489 5487 5487 5487 5488 5490 5492 5496
5654 5649 5644 5638 5632 5626 5619 5613 5606 5600 5592 5585 5578 5571 5563 5556 5549 5543 5536 5529 5523 5517 5513 5509 5507 5504 5502 5500 5498 5496 5493 5491 5489 5487 5485 5484 5482 5482 5481 5482 5483 5485 5487
5642 5637 5631 5626 5620 5613 5607 5600 5593 5586 5579 5572 5565 5559 5553 5547 5540 5535 5529 5523 5519 5514 5510 5507 5505 5503 5501 5498 5496 5493 5491 5488 5486 5483 5481 5480 5479 5478 5478 5478 5478 5479 5481
5630 5624 5619 5613 5607 5601 5595 5588 5581 5574 5567 5561 5555 5550 5545 5539 5534 5529 5525 5521 5517 5514 5510 5508 5505 5503 5500 5497 5495 5492 5489 5486 5484 5481 5479 5477 5476 5475 5475 5475 5475 5476 5477
5617 5612 5607 5601 5595 5589 5583 5577 5570 5564 5558 5552 5548 5543 5538 5534 5530 5526 5523 5520 5517 5514 5511 5509 5506 5503 5500 5497 5494 5491 5487 5484 5481 5478 5476 5474 5473 5472 5472 5472 5472 5473 5473